Hourly Data Report for October 29, 2015

All times are specified in Local Standard Time (LST). Add 1 hour to adjust for Daylight Saving Time where and when it is observed.

ST LEONARD CS
NEW BRUNSWICK

47°09'28.050" N
67°49'55.014" W
245.00 m
810I001
71019
WIY

Download Data

Hourly Data (October 2015)
Hourly Data Report for October 29, 2015
Temp Definition
°C
Dew Point Temp Definition
°C
Rel Hum Definition
%
Wind Dir Definition
10's deg

Wind Spd Definition
km/h
Visibility Definition
km
Stn Press Definition
kPa
Hmdx Definition


Wind Chill Definition


Weather Definition


TIME
00:00 4.2 3.6 96 13 22   98.90     LegendNANA
01:00 3.9 3.3 96 13 25   98.58     LegendNANA
02:00 4.1 3.4 95 13 28   98.33     LegendNANA
03:00 4.6 3.9 95 13 32   98.08     LegendNANA
04:00 4.7 3.9 95 13 32   97.85     LegendNANA
05:00 5.1 4.4 96 13 24   97.69     LegendNANA
06:00 5.9 5.4 97 13 22   97.43     LegendNANA
07:00 6.9 6.2 95 12 27   97.15     LegendNANA
08:00 8.0 7.4 97 13 23   96.96     LegendNANA
09:00 9.0 8.4 96 13 23   96.86     LegendNANA
10:00 10.3 9.8 97 12 14   96.70     LegendNANA
11:00 13.8 13.3 97 16 18   96.60     LegendNANA
12:00 14.4 13.8 97 18 18   96.53     LegendNANA
13:00 14.7 14.1 96 23 13   96.50     LegendNANA
14:00 16.1 15.0 93 22 12   96.36     LegendNANA
15:00 16.5 14.9 91 21 14   96.29     LegendNANA
16:00 16.0 14.4 90 20 9   96.18     LegendNANA
17:00 15.5 14.1 91 20 7   96.07     LegendNANA
18:00 13.7 13.1 96 25 11   96.05     LegendNANA
19:00 12.9 12.3 96 21 15   96.06     LegendNANA
20:00 10.0 8.5 90 26 11   96.23     LegendNANA
21:00 8.1 4.3 77 26 22   96.37     LegendNANA
22:00 6.7 2.8 76 26 17   96.38     LegendNANA
23:00 5.1 1.5 77 24 12   96.34     LegendNANA

Notes on Data Quality.

Legend

  • E = Estimated
  • M = Missing
  • NA = Not Available
  • ‡ = Partner data that is not subject to review by the National Climate Archives
Date modified: